Location: ??????
(55.8274°N, 37.9338°E)
Time: 08:43:17
(UTC+00:00)

NOSS 3-4 (A) - Pass Details

Date: 29 July 2024
Orbit: 763 x 1448 km, 63.4° (Epoch: 11 July)

Event Time Altitude Azimuth Distance (km) Brightness Sun altitude
Exits shadow 22:57:48 16° 228° (SW) 1,992 4.6 -13.7°
Maximum altitude 23:02:12 87° 143° (SE) 868 3.2 -13.5°
Drops below altitude 10° 23:08:26 10° 53° (NE) 2,708 6.8 -13.1°
Sets 23:11:12 0° 53° (NE) 3,762 7.7 -13.0°
